TimeEDT,TemperatureF,Dew PointF,Humidity,Sea Level PressureIn,VisibilityMPH,Wind Direction,Wind SpeedMPH,Gust SpeedMPH,PrecipitationIn,Events,Conditions,WindDirDegrees,DateUTC
12:54 AM,73.9,70.0,87,30.06,10.0,SSW,3.5,-,N/A,,Clear,200,2013-08-22 04:54:00
1:54 AM,73.0,71.1,93,30.07,10.0,SSW,3.5,-,N/A,,Clear,200,2013-08-22 05:54:00
2:54 AM,73.0,70.0,90,30.06,10.0,SSW,4.6,-,N/A,,Mostly Cloudy,210,2013-08-22 06:54:00
3:02 AM,73.4,69.8,88,30.08,10.0,SSW,4.6,-,N/A,,Mostly Cloudy,200,2013-08-22 07:02:00
3:54 AM,73.9,71.1,91,30.04,10.0,WSW,3.5,-,N/A,,Overcast,240,2013-08-22 07:54:00
4:40 AM,73.4,71.6,94,30.04,10.0,Calm,Calm,-,0.00,,Overcast,0,2013-08-22 08:40:00
4:49 AM,73.4,71.6,94,30.04,10.0,Calm,Calm,-,0.00,,Mostly Cloudy,0,2013-08-22 08:49:00
4:54 AM,72.0,72.0,100,30.02,10.0,Calm,Calm,-,0.00,,Mostly Cloudy,0,2013-08-22 08:54:00
5:35 AM,71.6,71.6,100,30.04,10.0,Calm,Calm,-,N/A,,Overcast,0,2013-08-22 09:35:00
5:54 AM,72.0,72.0,100,30.02,10.0,South,3.5,-,N/A,,Overcast,170,2013-08-22 09:54:00
6:54 AM,72.0,72.0,100,30.03,10.0,South,3.5,-,0.00,Rain,Light Rain,180,2013-08-22 10:54:00
7:14 AM,71.6,71.6,100,30.04,10.0,South,4.6,-,0.00,,Overcast,180,2013-08-22 11:14:00
7:54 AM,72.0,72.0,100,30.03,10.0,SSW,3.5,-,0.00,,Mostly Cloudy,200,2013-08-22 11:54:00
8:03 AM,71.6,71.6,100,30.04,10.0,South,4.6,-,N/A,,Mostly Cloudy,190,2013-08-22 12:03:00
8:54 AM,73.9,73.0,97,30.02,10.0,Variable,4.6,-,N/A,,Overcast,0,2013-08-22 12:54:00
9:21 AM,75.2,71.6,89,30.03,10.0,SW,5.8,-,N/A,,Overcast,220,2013-08-22 13:21:00
9:54 AM,75.9,71.1,85,30.01,10.0,SSW,4.6,-,N/A,,Overcast,210,2013-08-22 13:54:00
10:54 AM,79.0,71.1,77,30.01,10.0,SW,6.9,-,N/A,,Mostly Cloudy,230,2013-08-22 14:54:00
11:54 AM,79.0,69.1,72,30.01,10.0,WNW,11.5,21.9,N/A,,Mostly Cloudy,290,2013-08-22 15:54:00
12:01 PM,73.4,69.8,88,30.03,3.0,NW,6.9,21.9,0.11,Rain,Heavy Rain,310,2013-08-22 16:01:00
12:13 PM,71.6,66.2,83,30.03,10.0,WNW,9.2,-,0.11,,Overcast,300,2013-08-22 16:13:00
12:54 PM,71.1,70.0,96,30.00,10.0,NNW,3.5,-,0.18,Rain,Light Rain,330,2013-08-22 16:54:00
1:54 PM,73.9,72.0,93,29.98,10.0,Calm,Calm,-,0.05,,Partly Cloudy,0,2013-08-22 17:54:00
2:06 PM,75.2,71.6,89,30.00,10.0,Calm,Calm,-,N/A,,Partly Cloudy,0,2013-08-22 18:06:00
2:27 PM,73.4,71.6,94,29.99,10.0,Calm,Calm,-,N/A,,Mostly Cloudy,0,2013-08-22 18:27:00
2:42 PM,75.2,73.4,94,29.97,10.0,South,3.5,-,N/A,,Scattered Clouds,170,2013-08-22 18:42:00
2:54 PM,75.9,71.1,85,29.95,10.0,Calm,Calm,-,N/A,,Partly Cloudy,0,2013-08-22 18:54:00
3:54 PM,77.0,72.0,84,29.93,10.0,WSW,4.6,-,0.00,,Mostly Cloudy,250,2013-08-22 19:54:00
4:54 PM,75.9,72.0,87,29.92,10.0,Calm,Calm,-,N/A,,Clear,0,2013-08-22 20:54:00
5:54 PM,78.1,71.1,79,29.91,10.0,SSW,4.6,-,N/A,,Clear,210,2013-08-22 21:54:00
6:54 PM,75.9,70.0,82,29.89,10.0,SSW,3.5,-,N/A,,Clear,200,2013-08-22 22:54:00
7:54 PM,73.0,70.0,90,29.90,10.0,Calm,Calm,-,N/A,,Clear,0,2013-08-22 23:54:00
8:54 PM,73.0,71.1,93,29.92,8.0,South,3.5,-,N/A,,Clear,180,2013-08-23 00:54:00
9:54 PM,71.1,71.1,100,29.91,8.0,Calm,Calm,-,N/A,,Clear,0,2013-08-23 01:54:00
10:54 PM,72.0,71.1,97,29.91,9.0,WSW,4.6,-,N/A,,Clear,250,2013-08-23 02:54:00
11:54 PM,71.1,68.0,90,29.90,10.0,WNW,3.5,-,N/A,,Clear,300,2013-08-23 03:54:00